Location: Cz?stochówka
(50.8142°N, 19.0915°E)
Time: 11:01:44
(UTC+00:00)

CENTAUR R/B - Pass Details

Date: 13 January 2026
Orbit: 629 x 1551 km, 63.4° (Epoch: 11 February)

Event Time Altitude Azimuth Distance (km) Brightness Sun altitude
Rises 05:48:04 0° 196° (SSW) 3,201 5.3 -8.2°
Reaches altitude 10° 05:50:20 10° 189° (S) 2,378 4.8 -7.8°
Maximum altitude 05:55:31 44° 119° (ESE) 1,273 3.8 -7.1°
Drops below altitude 10° 06:01:58 10° 50° (NE) 2,971 5.4 -6.2°
Sets 06:05:06 0° 45° (NE) 4,089 6.0 -5.7°
